Flag for U.S.A. Weather past 2 weeks in Kennebunk, Maine, U.S.A.

Now
52 °F

Sunny.


Feels Like: 49 °F
Forecast: 42 / 54 °F
Wind: 9 mph from Southeast

Location: Sanford Municipal

Current Time: Apr 18, 2015 at 1:46:25 PM

Latest Report: Apr 18, 2015 at 1:15 PM


Visibility: 10 mi

Pressure: 29.93 "Hg

Humidity: 44%

Dew point: 30 °F

Location of KennebunkLocation

Historic Weather in Kennebunk — Graph

°F

Kennebunk temperature yesterday

Maximum temperature yesterday: 63 °F (at 5:15 PM)
Minimum temperature yesterday: 41 °F (at 11:15 PM)
Average temperature yesterday: 51 °F

Past Weeks' High & Low Weather Summary

 TemperatureHumidityPressure
High70 °F (Apr 13, 11:15 AM)100% (Apr 10, 4:55 AM)30.54 "Hg (Apr 10, 4:55 AM)
Low16 °F (Apr 5, 5:35 AM)15% (Apr 15, 6:35 PM)29.43 "Hg (Apr 4, 7:15 AM)
Average42 °F58%30.11 "Hg
* Reported Apr 3 12:15 PM — Apr 18 12:35 PM, Kennebunk, Weather by CustomWeather, © 2015

Note: Actual official high and low records may vary slightly from our data, if they occured in-between our weather recording intervals... More about our weather records

Advertising

Kennebunk weather history for previous 24 hours

 ConditionsComfort  
Time TempWeatherWind HumidityBarometerVisibility
12:35 PM
Sat, Apr 18
54 °FPassing clouds.9 mph44%29.95 "Hg10 mi
12:15 PM54 °FScattered clouds.8 mph44%29.97 "Hg10 mi
11:55 AM54 °FSunny.9 mph47%29.97 "Hg10 mi
11:35 AM54 °FSunny.9 mph44%29.96 "Hg10 mi
11:15 AM54 °FSunny.12 mph41%29.95 "Hg10 mi
10:55 AM55 °FSunny.12 mph38%29.97 "Hg10 mi
10:35 AM57 °FPassing clouds.10 mph39%29.97 "Hg10 mi
10:15 AM57 °FScattered clouds.7 mph41%29.97 "Hg10 mi
9:55 AM57 °FScattered clouds.6 mph41%29.97 "Hg10 mi
9:35 AM55 °FScattered clouds.7 mph41%29.97 "Hg10 mi
9:15 AM54 °FPartly sunny.5 mph44%29.96 "Hg10 mi
8:55 AM54 °FPartly sunny.7 mph51%29.95 "Hg10 mi
8:35 AM54 °FScattered clouds.7 mph44%29.95 "Hg10 mi
8:15 AM52 °FSunny.3 mph50%29.95 "Hg10 mi
7:55 AM50 °FSunny.No wind62%29.95 "Hg10 mi
7:35 AM46 °FSunny.No wind71%29.95 "Hg10 mi
7:15 AM43 °FSunny.No wind76%29.95 "Hg10 mi
6:55 AM37 °FClear.No wind87%29.94 "Hg10 mi
6:35 AM37 °FClear.No wind87%29.94 "Hg10 mi
6:15 AM37 °FClear.No wind87%29.93 "Hg10 mi
5:55 AM36 °FClear.No wind81%29.92 "Hg9 mi
5:35 AM37 °FClear.No wind75%29.92 "Hg10 mi
5:15 AM37 °FClear.3 mph75%29.92 "Hg10 mi
4:55 AM37 °FClear.6 mph75%29.90 "Hg10 mi
4:35 AM36 °FClear.No wind87%29.90 "Hg8 mi
4:15 AM37 °FClear.5 mph87%29.89 "Hg8 mi
3:55 AM37 °FClear.No wind87%29.89 "Hg7 mi
3:35 AM41 °FClear.No wind76%29.89 "Hg10 mi
3:15 AM41 °FClear.No wind81%29.89 "Hg10 mi
2:55 AM39 °FClear.5 mph81%29.89 "Hg10 mi
2:35 AM48 °FClear.3 mph71%29.89 "Hg10 mi
2:15 AM46 °FClear.6 mph76%29.89 "Hg10 mi
1:55 AM48 °FClear.6 mph71%29.89 "Hg10 mi
1:15 AM48 °FClear.10 mph76%29.89 "Hg10 mi
12:55 AM46 °FClear.9 mph76%29.89 "Hg10 mi
12:35 AM45 °FClear.8 mph76%29.89 "Hg10 mi
12:15 AM43 °FClear.8 mph76%29.88 "Hg10 mi
11:55 PM
Fri, Apr 17
45 °FClear.3 mph76%29.88 "Hg10 mi
11:15 PM41 °FClear.6 mph81%29.87 "Hg10 mi
10:55 PM43 °FClear.7 mph76%29.87 "Hg10 mi
10:35 PM43 °FClear.5 mph81%29.87 "Hg10 mi
10:15 PM43 °FClear.6 mph81%29.87 "Hg10 mi
9:55 PM43 °FClear.3 mph76%29.87 "Hg10 mi
9:35 PM43 °FClear.3 mph76%29.87 "Hg10 mi
9:15 PM45 °FClear.No wind76%29.87 "Hg10 mi
8:55 PM46 °FClear.No wind71%29.87 "Hg10 mi
8:35 PM48 °FClear.No wind71%29.86 "Hg10 mi
8:15 PM54 °FSunny.5 mph63%29.85 "Hg10 mi
7:55 PM54 °FSunny.7 mph63%29.84 "Hg10 mi
7:35 PM55 °FSunny.7 mph59%29.84 "Hg10 mi
7:15 PM59 °FSunny.7 mph55%29.83 "Hg10 mi
6:55 PM61 °FSunny.10 mph52%29.83 "Hg10 mi
6:35 PM63 °FSunny.8 mph49%29.83 "Hg10 mi
6:15 PM63 °FSunny.9 mph49%29.83 "Hg10 mi
5:55 PM63 °FSunny.8 mph49%29.83 "Hg10 mi
5:35 PM63 °FSunny.14 mph49%29.83 "Hg10 mi
5:15 PM63 °FSunny.17 mph49%29.82 "Hg10 mi
4:55 PM61 °FSunny.14 mph52%29.82 "Hg10 mi
4:35 PM61 °FPassing clouds.14 mph55%29.83 "Hg10 mi
4:15 PM61 °FMostly cloudy.16 mph55%29.84 "Hg10 mi
3:55 PM61 °FMore clouds than sun.10 mph59%29.84 "Hg10 mi
3:35 PM61 °FMostly cloudy.12 mph59%29.84 "Hg10 mi
3:15 PM61 °FMore clouds than sun.12 mph59%29.84 "Hg10 mi
2:55 PM59 °FMostly cloudy.9 mph63%29.85 "Hg10 mi
2:35 PM59 °FMostly cloudy.9 mph63%29.86 "Hg10 mi
2:15 PM59 °FCloudy.13 mph63%29.86 "Hg10 mi
1:55 PM57 °FMostly cloudy.13 mph63%29.87 "Hg10 mi
1:35 PM57 °FMostly cloudy.13 mph72%29.88 "Hg10 mi
1:15 PM55 °FMostly cloudy.8 mph77%29.89 "Hg10 mi
Weather by CustomWeather, © 2015

See weather overviewHow to use our weather pages